Dewpoint
26 26 24 25 22 21 18 17 17 19 29 37 38 41 52 53 53 52 53 55 58 59 61 61 63 63 64 64 65 66 66 67 68 68 69 69 67 68 70 69 69 69 70 71
21 21 24 24 24 21 18 17 17 16 18 21 27 39 51 53 53 53 53 53 54 55 56 59 61 63 63 63 64 65 67 67 68 68 68 69 68 68 68 70 69 70 70 71
19 20 21 20 20 20 19 17 16 16 18 29 38 39 48 53 53 54 54 54 54 54 54 56 60 62 63 62 64 65 66 66 67 67 68 69 69 70 69 69 70 71 71 71
17 20 17 18 18 20 18 19 17 15 15 15 37 35 39 48 51 52 53 54 54 54 54 55 59 61 62 62 64 65 66 66 67 67 67 66 65 65 68 69 69 69 70 71
16 15 15 16 16 19 18 20 17 16 15 16 21 29 37 42 46 48 49 52 53 54 55 54 55 60 61 62 64 65 66 67 67 68 67 67 66 67 68 68 69 69 70 71
16 20 13 15 18 18 20 18 14 16 16 13 15 22 22 40 40 43 44 49 51 52 53 54 54 57 60 61 62 65 66 67 68 68 68 68 67 67 67 67 67 68 70 71
15 14 19 19 17 19 18 16 13 10 11 11 13 19 19 30 41 41 42 43 49 50 52 52 53 54 57 60 61 64 65 67 68 69 68 68 68 67 67 67 67 68 69 69
19 19 17 18 18 17 17 16 12 8 8 10 16 15 18 28 34 42 42 43 44 48 50 52 52 53 55 59 61 63 65 66 68 69 69 69 68 68 67 67 67 68 69 69
20 20 23 21 17 18 14 14 14 9 16 11 14 17 24 27 32 36 41 43 44 46 49 50 52 52 54 57 60 63 64 65 68 69 69 69 69 68 68 68 67 68 69 69
18 19 21 21 19 16 16 11 10 6 6 5 6 14 17 25 26 33 37 43 44 45 46 49 50 51 54 56 59 62 64 65 66 68 68 68 68 68 68 69 68 68 68 68
18 16 15 20 19 18 14 13 8 9 6 4 3 4 14 21 27 31 37 43 44 45 45 47 49 50 53 55 58 62 64 65 65 67 68 68 69 69 70 69 69 68 68 67
32 19 14 16 20 20 17 13 10 6 4 6 4 4 15 16 18 28 33 41 45 45 45 45 46 48 51 54 57 61 64 65 65 67 67 67 67 68 69 70 70 69 67 67
36 26 13 10 11 14 18 17 12 10 9 7 3 5 11 13 16 26 29 36 42 45 46 45 44 46 49 54 56 61 64 65 65 66 67 68 68 69 68 68 70 71 68 66
33 28 24 15 13 14 12 15 16 11 9 9 8 9 13 12 12 15 31 38 40 44 45 45 45 45 47 52 56 60 64 65 65 66 67 67 68 69 69 68 68 70 70 69
32 28 27 27 26 24 21 13 13 14 13 11 11 9 9 13 17 22 26 38 42 43 44 45 46 47 47 51 56 59 63 66 66 66 67 67 68 69 70 70 69 68 70 70
32 27 30 27 24 22 18 17 15 13 14 11 10 9 10 10 12 13 13 22 36 42 42 43 45 47 48 49 55 58 62 66 67 67 68 68 68 69 70 71 71 70 70 70
28 30 29 25 25 24 17 17 16 15 15 15 12 11 9 9 11 11 12 22 29 37 42 41 41 43 48 49 54 57 60 64 67 68 68 69 69 69 70 71 72 71 70 70
29 31 29 26 26 16 18 18 18 15 15 16 13 12 13 11 12 16 21 22 28 36 39 39 42 42 46 50 53 56 59 63 67 68 68 69 69 69 70 71 72 72 71 70
30 27 27 24 24 24 21 24 17 16 16 20 17 16 15 16 23 24 34 33 33 36 39 37 39 42 46 49 54 57 59 61 66 67 68 69 70 70 70 71 71 72 72 71
29 28 27 26 23 19 27 40 42 38 14 16 19 18 18 23 16 17 41 34 28 27 39 38 43 49 50 52 56 58 60 61 65 67 68 69 70 71 71 71 71 72 72 71
27 30 29 29 26 26 35 46 49 26 18 27 34 20 23 21 21 24 45 44 41 44 42 36 41 50 51 53 56 58 60 61 63 66 68 69 70 71 71 71 72 72 72 71
33 32 31 30 30 24 49 48 48 49 55 50 43 40 32 39 41 44 45 43 44 44 51 46 37 40 52 55 54 56 58 60 62 63 64 68 69 70 71 71 72 72 72 71
27 36 34 33 34 46 50 51 52 54 56 56 45 53 51 53 54 56 57 61 63 65 66 67 61 61 65 51 58 55 56 58 59 62 63 65 68 69 70 71 72 72 72 71
33 40 36 37 44 47 50 52 52 54 55 57 60 60 60 60 63 64 65 66 67 68 68 69 69 69 68 70 68 65 64 60 59 60 61 64 65 68 70 71 72 72 71 71
37 41 37 39 46 45 50 51 52 54 53 55 56 57 61 63 64 65 66 66 67 68 68 69 69 69 68 69 68 70 71 68 62 63 63 66 68 69 68 61 66 72 68 71
39 41 37 37 48 48 49 51 52 52 52 53 55 56 57 59 60 62 63 64 65 65 66 66 67 67 68 69 69 69 68 69 70 69 66 65 63 61 60 61 59 57 63 65
Wind_Speed
11 14 26 22 15 11 7 7 12 3 1 1 11 17 32 33 28 31 30 30 31 33 34 31 29 29 26 24 25 25 25 23 21 16 17 16 18 14 12 13 14 14 15 15
11 28 17 16 16 20 14 17 26 11 10 7 13 19 29 35 40 41 37 34 33 30 24 29 29 30 29 30 28 27 27 26 24 21 19 13 15 13 12 13 14 14 15 17
23 7 17 17 16 18 16 22 22 20 4 4 4 4 21 29 21 21 27 32 32 33 34 28 33 33 31 31 33 32 31 28 26 23 16 8 5 2 8 7 11 14 16 16
16 21 16 18 18 19 24 15 13 13 4 8 8 9 19 27 29 26 25 28 30 31 30 28 30 35 35 33 29 30 30 29 26 23 23 24 19 18 14 14 13 13 14 16
17 25 27 23 28 17 17 11 11 6 10 11 13 9 10 28 30 32 30 32 32 33 33 33 33 34 37 33 30 30 30 30 28 26 26 23 19 17 13 14 16 14 14 16
27 9 24 22 16 24 11 10 3 4 10 21 27 15 19 25 38 37 33 35 36 34 34 34 36 32 30 29 29 30 29 30 28 28 29 27 25 20 18 14 18 16 13 15
18 31 8 13 21 16 14 12 11 11 16 21 19 15 24 18 33 38 38 39 39 37 36 36 34 31 30 31 32 30 30 31 30 30 29 28 26 25 25 22 19 16 14 12
18 13 29 16 22 20 19 26 13 16 14 17 8 20 18 27 22 29 37 39 38 36 36 38 37 36 34 35 34 33 32 33 30 30 30 27 26 23 22 21 19 18 16 17
23 20 10 23 14 27 11 28 24 13 2 6 10 20 12 19 26 25 25 23 33 36 37 39 39 35 35 34 37 37 34 34 32 33 29 27 25 24 21 22 20 18 16 15
8 8 16 19 18 22 26 12 15 8 26 27 9 19 16 26 32 28 27 24 30 34 34 38 37 37 33 32 34 33 34 37 35 34 31 28 27 25 21 21 23 21 17 19
3 9 8 13 18 33 16 25 11 15 16 19 17 24 12 17 25 29 29 28 33 34 37 37 36 32 35 34 31 35 33 33 32 31 30 28 26 24 22 23 23 23 20 20
9 5 30 29 8 25 27 24 23 17 25 21 26 22 3 31 27 20 20 24 29 34 34 31 33 32 31 32 31 34 33 33 34 33 32 31 28 24 24 25 23 21 24 20
14 5 8 6 12 12 19 23 29 30 12 34 29 8 18 15 14 16 22 23 23 27 26 27 30 27 28 30 32 33 34 36 33 31 32 31 29 26 28 28 25 23 24 23
5 4 8 19 10 5 19 18 30 30 29 32 36 13 8 20 26 29 19 20 23 27 29 30 28 28 29 32 34 33 34 34 34 33 33 32 32 30 29 29 27 25 26 24
4 5 9 13 21 25 22 22 38 36 36 31 27 27 26 17 17 18 18 15 15 18 25 29 30 29 26 27 28 29 29 29 32 33 33 35 31 30 28 28 27 26 25 26
4 6 10 14 15 20 27 27 35 44 35 24 24 17 21 29 27 21 24 24 19 24 26 27 30 31 33 34 35 34 32 33 33 34 37 32 31 30 30 27 26 25 25 26
4 3 8 8 17 20 24 44 32 27 29 30 37 16 17 25 24 30 31 27 25 25 30 28 31 30 25 30 33 35 36 33 35 36 33 32 32 32 31 26 25 27 28 25
9 8 3 9 14 16 23 13 27 30 23 20 10 22 28 32 32 29 26 24 25 24 23 26 21 20 27 31 30 31 27 30 33 34 31 30 32 33 29 28 29 28 27 29
30 14 6 6 7 19 26 13 11 20 23 15 30 26 21 28 10 14 13 15 19 20 25 23 22 24 23 25 24 23 24 29 30 29 31 32 32 31 29 31 32 28 26 25
31 30 15 8 6 14 2 20 28 20 34 33 25 25 22 15 24 26 13 17 15 9 16 21 18 13 17 20 26 27 26 27 30 32 34 33 32 32 33 34 33 31 29 29
17 16 20 18 10 13 11 32 14 13 26 14 22 27 22 22 22 20 13 8 11 8 7 8 10 21 26 19 22 29 29 33 38 34 33 30 31 33 34 30 26 28 27 24
16 17 17 18 15 17 17 14 11 19 32 20 18 20 22 13 14 19 14 11 7 10 8 6 12 17 18 16 22 23 28 35 32 30 28 31 32 30 28 30 27 26 26 27
20 12 18 13 14 3 4 10 20 23 23 21 25 14 27 24 15 13 12 11 10 8 6 7 4 6 8 4 19 26 30 26 26 23 27 28 28 29 28 29 30 27 30 29
15 12 14 19 7 6 13 19 22 27 14 14 16 13 20 26 17 18 16 13 14 12 13 12 13 14 13 13 7 10 13 10 14 22 24 22 25 26 27 26 25 26 24 23
23 13 20 14 4 6 13 19 25 20 13 21 25 25 19 18 18 19 18 17 16 16 16 17 15 15 14 13 15 16 15 4 13 14 11 12 13 14 11 6 9 20 13 21
14 19 26 14 9 10 12 16 22 9 17 19 25 29 26 23 21 17 20 16 17 18 16 18 16 14 13 13 15 17 21 21 16 14 12 11 11 14 18 18 24 21 32 33
Wind_Direction
190 199 210 212 205 214 215 238 249 159 85 169 224 181 176 178 186 187 189 186 194 205 203 198 197 195 192 193 192 194 197 197 188 188 196 207 212 202 201 210 212 211 205 203
208 220 210 211 213 222 223 240 259 283 228 242 245 214 187 180 195 192 190 191 195 199 191 201 199 197 193 193 194 196 198 196 191 192 197 203 205 214 208 204 204 206 206 210
211 222 196 200 206 212 222 222 242 247 343 236 151 217 185 202 214 199 203 199 200 197 193 186 196 201 200 197 195 196 197 197 195 189 188 184 167 172 199 201 204 205 207 207
228 229 208 208 222 211 239 222 246 259 328 275 159 237 195 202 212 210 206 207 208 207 208 201 194 196 201 201 197 197 196 198 197 187 192 202 203 208 216 211 212 216 208 203
208 199 211 217 221 200 239 234 230 251 245 260 250 256 221 183 209 216 209 209 211 210 205 206 203 203 203 197 194 193 193 196 195 192 197 201 202 207 206 204 211 221 220 206
216 203 205 215 213 211 213 261 308 252 234 251 251 210 253 194 204 212 212 211 210 208 210 210 213 203 203 200 194 192 191 198 195 194 198 199 202 201 209 212 218 219 218 205
206 223 223 187 208 207 191 188 234 239 221 237 237 226 230 217 209 211 208 212 211 207 207 211 213 205 200 199 196 193 193 197 195 196 198 200 201 201 206 208 213 208 209 202
196 216 217 208 201 206 202 198 189 212 227 241 209 238 237 223 231 215 217 214 210 206 205 209 210 206 202 197 197 193 193 197 194 196 200 201 201 202 205 207 209 211 207 207
197 226 236 206 200 191 197 209 208 240 269 284 223 247 250 217 233 240 220 207 209 207 203 208 211 208 204 199 197 196 195 198 195 198 200 200 201 202 200 205 206 207 201 202
212 228 217 203 193 210 208 178 192 201 234 241 241 233 226 203 220 230 235 212 213 210 205 210 210 208 204 203 201 198 197 196 195 196 198 199 201 203 199 199 207 206 203 200
310 231 213 183 198 202 198 213 212 199 212 232 245 251 211 212 217 223 226 215 212 207 207 208 211 207 204 200 194 198 197 198 199 196 198 201 204 203 199 202 203 203 198 197
341 295 241 228 206 209 209 211 201 214 217 231 236 233 324 201 216 222 228 220 221 217 216 206 207 207 203 199 194 194 196 197 200 197 196 200 201 199 199 207 205 197 201 197
345 284 256 264 239 244 215 210 210 223 231 231 231 238 210 196 219 217 225 236 235 227 215 204 210 202 198 197 196 195 195 200 198 198 198 201 202 198 201 208 204 200 201 198
24 284 270 253 269 276 219 219 209 210 226 232 231 227 218 211 217 234 230 235 226 207 202 198 204 205 196 195 196 196 198 196 196 196 199 201 202 202 203 207 207 202 203 199
61 288 301 301 304 290 268 244 224 219 220 223 234 224 226 202 198 210 229 240 234 207 196 201 202 190 191 191 195 198 199 198 195 196 199 205 202 203 205 207 208 207 203 205
18 290 321 306 284 270 266 256 247 224 222 229 235 226 215 231 232 230 235 249 229 222 208 198 196 194 199 193 192 194 195 196 193 197 203 200 202 202 205 206 205 204 206 206
294 246 339 292 314 325 262 239 246 247 219 212 228 213 197 233 227 235 240 239 232 230 218 209 201 205 202 199 198 194 193 190 193 200 203 199 201 205 206 202 202 205 204 199
231 208 205 283 300 237 257 216 239 240 250 214 194 209 206 218 234 226 224 231 225 232 210 213 217 206 202 204 197 198 192 191 195 199 200 202 201 204 202 201 206 209 204 202
213 211 218 237 248 289 293 311 241 206 229 228 214 218 217 217 217 234 236 220 232 220 211 203 208 224 217 197 191 188 188 190 193 201 202 201 202 205 201 202 206 208 205 204
204 203 206 200 237 241 118 345 332 306 231 211 209 204 208 189 225 237 211 212 220 221 222 218 220 211 201 193 169 174 183 188 198 199 204 202 201 203 203 205 205 203 204 210
176 197 214 240 254 282 315 335 318 191 236 204 202 210 201 203 213 217 173 167 161 138 218 212 194 203 209 180 174 182 182 197 206 203 205 202 203 204 207 205 205 203 202 204
189 174 191 217 217 248 5 359 357 313 305 267 180 192 181 168 153 156 165 160 156 138 131 132 187 201 203 182 186 203 195 208 208 206 204 204 204 201 200 201 200 199 195 200
244 198 171 213 217 208 356 338 309 306 293 292 133 138 141 139 142 139 130 116 94 80 63 57 74 59 44 228 199 200 222 218 208 198 201 202 201 203 203 197 192 194 194 196
273 198 195 206 231 268 25 352 336 322 348 347 72 102 125 124 119 110 100 85 83 69 57 40 44 45 40 32 18 291 307 260 214 206 211 207 198 199 196 195 193 196 200 195
267 239 213 211 217 245 31 356 330 317 25 52 55 61 59 95 97 103 94 86 77 66 56 56 54 49 40 38 44 36 23 324 226 222 228 207 186 175 158 83 226 197 179 174
241 242 209 221 183 111 62 327 309 312 57 58 65 62 51 55 61 64 73 68 67 68 64 60 53 57 43 45 53 55 56 61 69 70 65 83 98 84 91 88 73 55 97 104